1314921627690,100.337
1314921687690,100.566
1314921747690,100.520
1314921807690,100.098
1314921867690,100.441
1314921927690,100.515
1314921987690,100.058
1314922047690,100.352
1314922107690,99.8054
1314922167690,100.246
1314922227690,100.201
1314922287690,100.160
1314922347690,100.034
1314922407690,99.8739
1314922467690,99.8756
1314922527690,100.299
1314922587690,100.076
1314922647690,99.9492
1314922707690,100.185
1314922767690,99.9758
1314922827690,100.844
1314922887690,100.290
1314922947690,100.160
1314923007690,100.281
1314923067690,100.615
1314923127690,100.646
1314923187690,100.340
1314923247690,100.100
1314923307690,99.9913
1314923367690,100.417
1314923427690,100.415
1314923487690,101.027
1314923547690,100.075
1314923607690,100.569
1314923667690,100.758
1314923727690,100.442
1314923787690,100.654
1314923847690,100.747
1314923907690,100.153
1314923967690,100.675
1314924027690,100.580
1314924087690,100.746
1314924147690,100.775
1314924207690,100.557
1314924267690,100.535
1314924327690,100.146
1314924387690,100.190
1314924447690,100.942
1314924507690,100.403
1314924567690,100.412
1314924627690,100.628
1314924687690,100.403
1314924747690,100.577
1314924807690,100.666
1314924867690,100.733
1314924927690,100.077
1314924987690,100.630
1314925047690,100.466
1314925107690,100.741
1314925167690,100.397
1314925227700,101.127
1314925287700,100.192
1314925347700,100.711
1314925407700,100.368
1314925467700,100.165
1314925527700,100.509
1314925587700,100.977
1314925647700,100.486
1314925707700,100.675
1314925767700,100.666
1314925827700,100.543
1314925887700,99.9295
1314925947700,99.8352
1314926007700,100.725
1314926067700,100.288
1314926127700,99.9947
1314926187700,99.9643
1314926247700,100.771
1314926307700,100.698
1314926367700,99.7005
1314926427700,100.052
1314926487700,100.212
1314926547700,100.541
1314926607700,100.333
1314926667700,99.8982
1314926727700,100.331
1314926787700,100.065
1314926847700,100.412
1314926907700,99.5924
1314926967700,99.8414
1314927027700,100.354
1314927087700,99.6971
1314927147700,100.492
1314927207700,100.365
1314927267700,100.438
1314927327700,99.6171
1314927387700,99.8940
1314927447700,99.8693
1314927507700,99.8623
1314927567700,100.154
1314927627700,100.505
1314927687700,100.105
1314927747700,99.9028
1314927807700,99.9591
1314927867700,99.6490
1314927927700,100.048
1314927987700,99.8823
1314928047700,100.051
1314928107700,99.8083
1314928167700,99.8046
1314928227700,99.6049
1314928287700,100.265
1314928347700,99.9349
1314928407700,99.6596
1314928467700,99.9259
1314928527700,99.8325
1314928587700,99.8965
1314928647700,99.8013
1314928707700,99.7592
1314928767700,99.8568
1314928827710,99.8925
1314928887710,99.8180
1314928947710,99.8227
1314929007710,99.6448
1314929067710,99.7520
1314929127710,99.4758
1314929187710,99.6490
1314929247710,99.1932
1314929307710,99.5996
1314929367710,99.7138
1314929427710,99.6521
1314929487710,99.4806
1314929547710,99.3142
1314929607710,99.5135
1314929667710,99.6568
1314929727710,99.1349
1314929787710,99.6591
1314929847710,99.8312
1314929907710,99.6968
1314929967710,98.8971
1314930027710,99.0719
1314930087710,99.3740
1314930147710,99.7708
1314930207710,99.4170
1314930267710,99.4582
1314930327710,99.3121
1314930387710,99.4224
1314930447710,99.1290
1314930507710,99.3226
1314930567710,99.1804
1314930627710,99.3437
1314930687710,99.5128
1314930747710,99.2320
1314930807710,99.7213
1314930867710,99.5938
1314930927710,99.6672
1314930987710,99.4574
1314931047710,99.4590
1314931107710,99.4534
1314931167710,98.8421
1314931227710,98.9881
1314931287710,99.2212
1314931347710,99.1729
1314931407710,99.1544
1314931467710,99.3127
1314931527710,99.0930
1314931587710,99.0786
1314931647710,99.2349
1314931707710,99.0277
1314931767710,99.2385
1314931827710,98.9716
1314931887710,99.5377
1314931947710,98.9029
1314932007710,99.5372
1314932067710,99.2264
1314932127710,99.4540
1314932187710,98.9252
1314932247710,98.7983
1314932307710,98.9613
1314932367710,98.8698
1314932427720,99.4058
1314932487720,98.8101
1314932547720,98.6138
1314932607720,98.5984
1314932667720,99.4478
1314932727720,98.8510
1314932787720,98.7366
1314932847720,98.6072
1314932907720,98.4360
1314932967720,98.7570
1314933027720,98.8716
1314933087720,99.2307
1314933147720,99.1169
1314933207720,98.8188
1314933267720,98.9327
1314933327720,98.9120
1314933387720,98.7888
1314933447720,98.8391
1314933507720,98.9977
1314933567720,98.9766
1314933627720,98.8524
1314933687720,98.4469
1314933747720,98.5574
1314933807720,98.8335
1314933867720,99.3521
1314933927720,98.6384
1314933987720,98.6788
1314934047720,98.8430
1314934107720,98.7272
1314934167720,98.2512
1314934227720,98.6751
1314934287720,98.6950
1314934347720,98.7321
1314934407720,97.9791
1314934467720,98.2662
1314934527720,98.4359
1314934587720,98.4892
1314934647720,98.5673
1314934707720,98.2888
1314934767720,99.0146
1314934827720,98.4779
1314934887720,98.1043
1314934947720,98.2465
1314935007720,98.4681
1314935067720,98.0221
1314935127720,98.3369
1314935187720,98.4706
1314935247720,98.2776
1314935307720,98.4826
1314935367720,98.7775
1314935427720,98.7567
1314935487720,98.0689
1314935547720,98.8444
1314935607720,98.2415
1314935667720,98.1495
1314935727720,98.6654
1314935787720,98.6893
1314935847720,98.5323
1314935907720,98.8528
1314935967720,98.8783
1314936027729,98.9098
1314936087729,99.0938
1314936147729,98.6459
1314936207729,98.4355
1314936267729,99.0138
1314936327729,98.6838
1314936387729,98.1178
1314936447729,98.7232
1314936507729,99.0131
1314936567729,98.7711
1314936627729,98.7604
1314936687729,98.7854
1314936747729,98.4354
1314936807729,99.0363
1314936867729,99.1598
1314936927729,99.0268
1314936987729,99.0138
1314937047729,99.3382
1314937107729,99.2874
1314937167729,99.2540
1314937227729,99.0007
1314937287729,99.0567
1314937347729,99.4647
1314937407729,99.0193
1314937467729,99.2240
1314937527729,99.9332
1314937587729,99.3551
1314937647729,99.1673
1314937707729,99.5236
1314937767729,99.5738
1314937827729,99.6165
1314937887729,99.3133
1314937947729,99.8174
1314938007729,99.6649
1314938067729,98.9370
1314938127729,99.4202
1314938187729,99.7875
1314938247729,99.8656
1314938307729,99.6392
1314938367729,99.7425
1314938427729,100.066
1314938487729,99.1938
1314938547729,99.3950
1314938607729,99.7954
1314938667729,99.8951
1314938727729,99.4220
1314938787729,99.9893
1314938847729,100.441
1314938907729,99.6933
1314938967729,100.016
1314939027729,100.427
1314939087729,99.4982
1314939147729,100.428
1314939207729,100.231
1314939267729,100.212
1314939327729,100.505
1314939387729,100.206
1314939447729,100.624
1314939507729,99.9504
1314939567729,100.852
1314939627739,100.578
1314939687739,100.097
1314939747739,100.551
1314939807739,101.204
1314939867739,100.909
1314939927739,100.476
1314939987739,100.776
1314940047739,100.732
1314940107739,100.352
1314940167739,100.373
1314940227739,101.359
1314940287739,100.407
1314940347739,100.960
1314940407739,100.377
1314940467739,100.909
1314940527739,101.218
1314940587739,100.616
1314940647739,100.651
1314940707739,100.627
1314940767739,100.829
1314940827739,101.176
1314940887739,100.762
1314940947739,100.930
1314941007739,100.525
1314941067739,100.908
1314941127739,101.247
1314941187739,100.433
1314941247739,100.649
1314941307739,100.757
1314941367739,100.973
1314941427739,100.714
1314941487739,100.754
1314941547739,100.715
1314941607739,101.203
1314941667739,101.188
1314941727739,100.810
1314941787739,101.167
1314941847739,101.000
1314941907739,100.438
1314941967739,101.031
1314942027739,100.623
1314942087739,101.412
1314942147739,101.269
1314942207739,100.538
1314942267739,100.559
1314942327739,100.618
1314942387739,100.596
1314942447739,100.325
1314942507739,100.489
1314942567739,100.755
1314942627739,100.822
1314942687739,101.252
1314942747739,100.841
1314942807739,100.307
1314942867739,100.826
1314942927739,100.475
1314942987739,100.384
1314943047739,100.480
1314943107739,99.9876
1314943167739,100.974
1314943227748,100.376
1314943287748,100.531
1314943347748,100.769
1314943407748,100.696
1314943467748,100.740
1314943527748,100.446
1314943587748,100.458
1314943647748,100.502
1314943707748,100.475
1314943767748,100.648
1314943827748,100.691
1314943887748,100.515
1314943947748,100.206
1314944007748,100.510
1314944067748,100.217
1314944127748,100.025
1314944187748,99.7297
1314944247748,100.035
1314944307748,99.6365
1314944367748,99.8446
1314944427748,100.196
1314944487748,99.8979
1314944547748,99.9461
1314944607748,99.6787
1314944667748,99.7955
1314944727748,99.9513
1314944787748,99.8966
1314944847748,99.9205
1314944907748,100.109
1314944967748,99.6590
1314945027748,99.9664
1314945087748,100.100
1314945147748,99.8774
1314945207748,99.9404
1314945267748,99.8971
1314945327748,99.7904
1314945387748,100.275
1314945447748,99.8017
1314945507748,99.7350
1314945567748,99.8708
1314945627748,99.9169
1314945687748,99.8207
1314945747748,100.047
1314945807748,100.200
1314945867748,99.1859
1314945927748,99.6256
1314945987748,100.134
1314946047748,99.4428
1314946107748,100.203
1314946167748,99.4615
1314946227748,99.8784
1314946287748,99.4990
1314946347748,100.040
1314946407748,99.4798
1314946467748,99.2962
1314946527748,99.8224
1314946587748,99.7099
1314946647748,99.5938
1314946707748,99.9014
1314946767748,99.5647
1314946827758,99.5004
1314946887758,99.6869
1314946947758,99.4862
1314947007758,99.9118
1314947067758,100.111
1314947127758,99.8794
1314947187758,99.2332
1314947247758,99.4995
1314947307758,99.0269
1314947367758,99.2716
1314947427758,99.4954
1314947487758,99.4597
1314947547758,99.8828
1314947607758,99.1736
1314947667758,99.6878
1314947727758,99.6282
1314947787758,99.4331
1314947847758,99.2666
1314947907758,99.4429
1314947967758,99.2001
1314948027758,99.0611
1314948087758,98.9358
1314948147758,99.0324
1314948207758,99.4026
1314948267758,99.2168
1314948327758,99.1039
1314948387758,99.3073
1314948447758,99.2234
1314948507758,99.4168
1314948567758,99.1794
1314948627758,99.1244
1314948687758,99.1102
1314948747758,99.4244
1314948807758,99.3206
1314948867758,98.8850
1314948927758,98.9802
1314948987758,98.7701
1314949047758,99.6715
1314949107758,99.3738
1314949167758,98.5670
1314949227758,99.2816
1314949287758,99.0634
1314949347758,99.3560
1314949407758,99.5625
1314949467758,99.3615
1314949527758,98.9720
1314949587758,98.9862
1314949647758,99.5648
1314949707758,99.1383
1314949767758,99.1113
1314949827758,99.3097
1314949887758,98.9629
1314949947758,98.9174
1314950007758,99.1979
1314950067758,99.2318
1314950127758,98.9087
1314950187758,98.5090
1314950247758,99.2173
1314950307758,99.2735
1314950367758,99.1207
1314950427768,99.0884
1314950487768,99.2745
1314950547768,98.9879
1314950607768,98.9681
1314950667768,99.3297
1314950727768,99.6630
1314950787768,99.6146
1314950847768,99.1076
1314950907768,99.0673
1314950967768,99.6337
1314951027768,98.7427
1314951087768,99.4529
1314951147768,99.3963
1314951207768,99.4243
1314951267768,100.425
1314951327768,99.9264
1314951387768,99.8125
1314951447768,100.339
1314951507768,99.5100
1314951567768,100.046
1314951627768,99.9327
1314951687768,100.070
1314951747768,100.163
1314951807768,100.047
1314951867768,100.162
1314951927768,100.330
1314951987768,99.8212
1314952047768,99.9825
1314952107768,100.504
1314952167768,100.161
1314952227768,100.382
1314952287768,99.7957
1314952347768,100.348
1314952407768,100.326
1314952467768,100.402
1314952527768,100.293
1314952587768,100.191
1314952647768,100.460
1314952707768,100.243
1314952767768,100.414
1314952827768,100.389
1314952887768,100.808
1314952947768,100.715
1314953007768,100.593
1314953067768,101.094
1314953127768,100.370
1314953187768,100.552
1314953247768,100.748
1314953307768,100.655
1314953367768,100.588
1314953427768,100.694
1314953487768,100.799
1314953547768,101.113
1314953607768,100.981
1314953667768,100.573
1314953727768,100.629
1314953787768,101.146
1314953847768,101.045
1314953907768,101.128
1314953967768,101.312
1314954027778,100.751
1314954087778,101.192
1314954147778,101.338
1314954207778,101.176
1314954267778,101.027
1314954327778,100.658
1314954387778,101.233
1314954447778,101.168
1314954507778,101.376
1314954567778,100.994
1314954627778,100.987
1314954687778,101.168
1314954747778,101.057
1314954807778,101.714
1314954867778,100.718
1314954927778,100.793
1314954987778,101.758
1314955047778,101.313
1314955107778,101.563
1314955167778,101.379
1314955227778,101.036
1314955287778,100.694
1314955347778,101.576
1314955407778,101.174
1314955467778,101.522
1314955527778,101.391
1314955587778,101.351
1314955647778,101.095
1314955707778,100.816
1314955767778,100.993
1314955827778,101.724
1314955887778,101.334
1314955947778,100.954
1314956007778,101.731
1314956067778,101.284
1314956127778,101.524
1314956187778,101.078
1314956247778,101.127
1314956307778,100.993
1314956367778,101.027
1314956427778,100.935
1314956487778,101.029
1314956547778,101.351
1314956607778,101.470
1314956667778,101.010
1314956727778,101.068
1314956787778,101.013
1314956847778,101.075
1314956907778,100.842
1314956967778,100.785
1314957027778,100.827
1314957087778,101.532
1314957147778,101.228
1314957207778,101.052
1314957267778,101.266
1314957327778,100.772
1314957387778,100.959
1314957447778,101.137
1314957507778,100.634
1314957567778,101.931
1314957627788,101.246
1314957687788,101.058
1314957747788,101.167
1314957807788,101.492
1314957867788,101.303
1314957927788,101.338
1314957987788,100.607
1314958047788,100.751
1314958107788,100.694
1314958167788,101.378
1314958227788,101.137
1314958287788,100.950
1314958347788,101.029
1314958407788,100.858
1314958467788,100.646
1314958527788,101.164
1314958587788,100.954
1314958647788,101.026
1314958707788,100.628
1314958767788,100.773
1314958827788,100.784
1314958887788,100.289
1314958947788,100.582
1314959007788,100.957
1314959067788,100.693
1314959127788,100.090
1314959187788,100.695
1314959247788,100.527
1314959307788,100.912
1314959367788,100.536
1314959427788,100.341
1314959487788,100.311
1314959547788,100.082
1314959607788,100.245
1314959667788,100.728
1314959727788,100.052
1314959787788,100.985
1314959847788,100.522
1314959907788,100.109
1314959967788,100.029
1314960027788,100.632
1314960087788,101.004
1314960147788,100.437
1314960207788,100.842
1314960267788,100.196
1314960327788,100.385
1314960387788,100.253
1314960447788,100.196
1314960507788,100.288
1314960567788,100.449
1314960627788,100.576
1314960687788,100.344
1314960747788,99.8700
1314960807788,100.384
1314960867788,100.006
1314960927788,101.770
1314960987788,100.027
1314961047788,100.189
1314961107788,100.197
1314961167788,100.142
1314961227798,99.6783
1314961287798,100.071
1314961347798,99.7593
1314961407798,100.665
1314961467798,100.055
1314961527798,100.200
1314961587798,100.344
1314961647798,100.210
1314961707798,100.225
1314961767798,100.616
1314961827798,100.302
1314961887798,100.624
1314961947798,100.517
1314962007798,99.9234
1314962067798,100.281
1314962127798,100.452
1314962187798,100.198
1314962247798,100.465
1314962307798,100.643
1314962367798,100.598
1314962427798,99.8575
1314962487798,100.128
1314962547798,100.153
1314962607798,100.348
1314962667798,100.343
1314962727798,100.768
1314962787798,100.117
1314962847798,100.553
1314962907798,100.383
1314962967798,100.698
1314963027798,100.677
1314963087798,100.268
1314963147798,100.226
1314963207798,100.693
1314963267798,100.558
1314963327798,100.367
1314963387798,100.574
1314963447798,100.254
1314963507798,100.102
1314963567798,99.7812
1314963627798,100.080
1314963687798,100.169
1314963747798,100.392
1314963807798,100.078
1314963867798,100.414
1314963927798,100.213
1314963987798,100.625
1314964047798,100.406
1314964107798,99.9774
1314964167798,100.188
1314964227798,100.739
1314964287798,100.269
1314964347798,100.751
1314964407798,100.040
1314964467798,99.9585
1314964527798,100.304
1314964587798,100.305
1314964647798,100.117
1314964707798,100.414
1314964767798,100.396
1314964827809,100.112
1314964887809,100.350
1314964947809,100.480
1314965007809,100.607
1314965067809,100.427
1314965127809,100.553
1314965187809,100.326
1314965247809,100.622
1314965307809,100.442
1314965367809,100.482
1314965427809,100.407
1314965487809,100.102
1314965547809,100.277
1314965607809,100.910
1314965667809,100.312
1314965727809,100.240
1314965787809,100.745
1314965847809,101.025
1314965907809,100.558
1314965967809,100.430
1314966027809,100.626
1314966087809,100.293
1314966147809,100.327
1314966207809,100.875
1314966267809,100.508
1314966327809,100.474
1314966387809,100.606
1314966447809,100.340
1314966507809,100.597
1314966567809,100.790
1314966627809,100.969
1314966687809,101.354
1314966747809,100.462
1314966807809,100.602
1314966867809,100.771
1314966927809,100.716
1314966987809,100.320
1314967047809,100.979
1314967107809,100.826
1314967167809,100.521
1314967227809,101.287
1314967287809,101.117
1314967347809,100.533
1314967407809,100.742
1314967467809,100.657
1314967527809,100.676
1314967587809,100.775
1314967647809,100.641
1314967707809,100.756
1314967767809,100.702
1314967827809,100.341
1314967887809,100.533
1314967947809,100.248
1314968007809,100.416
1314968067809,100.565
1314968127809,100.304
1314968187809,100.375
1314968247809,100.140
1314968307809,100.570
1314968367809,100.656
1314968427819,100.340
1314968487819,100.153
1314968547819,100.841
1314968607819,100.961
1314968667819,100.670
1314968727819,100.276
1314968787819,100.612
1314968847819,100.381
1314968907819,100.313
1314968967819,100.301
1314969027819,99.9797
1314969087819,100.974
1314969147819,100.660
1314969207819,100.899
1314969267819,100.841
1314969327819,100.510
1314969387819,100.156
1314969447819,100.883
1314969507819,101.063
1314969567819,100.260
1314969627819,100.710
1314969687819,100.463
1314969747819,100.582
1314969807819,100.655
1314969867819,100.570
1314969927819,100.796
1314969987819,100.694
1314970047819,100.492
1314970107819,100.760
1314970167819,100.680
1314970227819,101.026
1314970287819,100.144
1314970347819,100.675
1314970407819,100.860
1314970467819,100.658
1314970527819,100.884
1314970587819,100.183
1314970647819,100.790
1314970707819,100.408
1314970767819,100.914
1314970827819,100.135
1314970887819,100.856
1314970947819,100.556
1314971007819,100.772
1314971067819,100.361
1314971127819,100.918
1314971187819,100.182
1314971247819,100.309
1314971307819,100.520
1314971367819,100.612
1314971427819,100.922
1314971487819,100.158
1314971547819,100.290
1314971607819,100.840
1314971667819,100.740
1314971727819,100.391
1314971787819,100.444
1314971847819,100.825
1314971907819,100.057
1314971967819,100.300
1314972027830,100.358
1314972087830,100.153
1314972147830,100.749
1314972207830,100.271
1314972267830,100.820
1314972327830,100.704
1314972387830,100.961
1314972447830,100.632
1314972507830,100.459
1314972567830,100.502
1314972627830,100.405
1314972687830,100.489
1314972747830,100.730
1314972807830,100.596
1314972867830,100.454
1314972927830,100.635
1314972987830,100.750
1314973047830,100.545
1314973107830,100.096
1314973167830,101.013
1314973227830,100.256
1314973287830,100.526
1314973347830,100.960
1314973407830,100.684
1314973467830,100.837
1314973527830,100.836
1314973587830,100.407
1314973647830,100.275
1314973707830,100.264
1314973767830,100.611
1314973827830,100.491
1314973887830,101.110
1314973947830,100.758
1314974007830,100.759
1314974067830,100.995
1314974127830,100.544
1314974187830,101.011
1314974247830,100.578
1314974307830,100.738
1314974367830,101.149
1314974427830,100.711
1314974487830,100.731
1314974547830,100.992
1314974607830,100.848
1314974667830,100.897
1314974727830,100.903
1314974787830,100.911
1314974847830,100.712
1314974907830,100.545
1314974967830,101.106
1314975027830,100.773
1314975087830,100.471
1314975147830,100.318
1314975207830,100.587
1314975267830,101.117
1314975327830,100.652
1314975387830,100.487
1314975447830,100.558
1314975507830,101.076
1314975567830,101.111
1314975627841,101.298
1314975687841,101.254
1314975747841,100.836
1314975807841,100.678
1314975867841,101.410
1314975927841,101.108
1314975987841,100.720
1314976047841,100.657
1314976107841,100.847
1314976167841,100.829
1314976227841,101.052
1314976287841,100.364
1314976347841,101.188
1314976407841,100.923
1314976467841,101.300
1314976527841,100.959
1314976587841,102.861
1314976647841,101.138
1314976707841,101.120
1314976767841,101.116
1314976827841,100.837
1314976887841,100.991
1314976947841,100.763
1314977007841,101.124
1314977067841,100.808
1314977127841,101.053
1314977187841,101.089
1314977247841,100.930
1314977307841,101.019
1314977367841,100.955
1314977427841,101.045
1314977487841,100.821
1314977547841,101.295
1314977607841,101.255
1314977667841,101.063
1314977727841,101.388
1314977787841,101.192
1314977847841,101.504
1314977907841,101.730
1314977967841,101.274
1314978027841,101.450
1314978087841,100.926
1314978147841,100.968
1314978207841,100.757
1314978267841,101.238
1314978327841,101.303
1314978387841,101.138
1314978447841,101.064
1314978507841,101.092
1314978567841,101.055
1314978627841,101.047
1314978687841,101.818
1314978747841,99.7527
1314978807841,100.617
1314978867841,101.236
1314978927841,101.148
1314978987841,101.218
1314979047841,101.462
1314979107841,101.264
1314979167841,101.213
1314979227852,101.208
1314979287852,100.497
1314979347852,100.964
1314979407852,100.930
1314979467852,100.882
1314979527852,100.671
1314979587852,101.282
1314979647852,101.000
1314979707852,101.043
1314979767852,101.348
1314979827852,101.405
1314979887852,100.774
1314979947852,100.864
1314980007852,100.957
1314980067852,101.324
1314980127852,101.564
1314980187852,101.271
1314980247852,100.792
1314980307852,100.956
1314980367852,100.857
1314980427852,100.631
1314980487852,101.192
1314980547852,101.504
1314980607852,101.487
1314980667852,101.060
1314980727852,100.827
1314980787852,101.406
1314980847852,101.358
1314980907852,101.148
1314980967852,101.389
1314981027852,101.140
1314981087852,101.609
1314981147852,101.520
1314981207852,101.357
1314981267852,100.944
1314981327852,101.159
1314981387852,101.100
1314981447852,100.894
1314981507852,101.226
1314981567852,101.547
1314981627852,101.824
1314981687852,101.583
1314981747852,101.766
1314981807852,101.555
1314981867852,101.452
1314981927852,101.616
1314981987852,101.155
1314982047852,101.896
1314982107852,101.294
1314982167852,101.429
1314982227852,101.143
1314982287852,101.472
1314982347852,101.687
1314982407852,101.284
1314982467852,101.770
1314982527852,101.518
1314982587852,101.598
1314982647852,101.632
1314982707852,101.922
1314982767852,101.689
1314982827863,101.048
1314982887863,102.430
1314982947863,101.656
1314983007863,102.101
1314983067863,102.369
1314983127863,101.507
1314983187863,101.790
1314983247863,102.477
1314983307863,101.881
1314983367863,101.914
1314983427863,102.217
1314983487863,102.443
1314983547863,102.071
1314983607863,102.269
1314983667863,102.512
1314983727863,101.765
1314983787863,101.727
1314983847863,101.192
1314983907863,101.656
1314983967863,101.924
1314984027863,102.010
1314984087863,101.957
1314984147863,101.595
1314984207863,102.345
1314984267863,101.932
1314984327863,101.854
1314984387863,102.115
1314984447863,102.413
1314984507863,101.752
1314984567863,102.091
1314984627863,102.070
1314984687863,101.318
1314984747863,101.875
1314984807863,101.368
1314984867863,101.517
1314984927863,102.055
1314984987863,101.699
1314985047863,101.492
1314985107863,101.526
1314985167863,102.169
1314985227863,102.057
1314985287863,101.674
1314985347863,101.741
1314985407863,102.110
1314985467863,102.173
1314985527863,101.950
1314985587863,101.724
1314985647863,101.759
1314985707863,101.841
1314985767863,102.001
1314985827863,101.953
1314985887863,101.323
1314985947863,102.141
1314986007863,101.270
1314986067863,101.662
1314986127863,101.562
1314986187863,101.450
1314986247863,101.095
1314986307863,101.499
1314986367863,101.569
1314986427874,101.505
1314986487874,100.968
1314986547874,101.115
1314986607874,101.135
1314986667874,101.245
1314986727874,101.744
1314986787874,101.482
1314986847874,101.100
1314986907874,101.233
1314986967874,101.249